[[{"header":{"parameterUnit":"m.s-1","parameterCategory":1,"la1":30.2991,"la2":30.254,"lo1":-89.0895,"lo2":-89.0444,"dy":0.0017,"dx":0.0017,"nx":28,"ny":28,"refTime":"2025-12-28T09:00:00:Z","depth":0,"parameterNumber":2,"parameterNumberName":"U-component_of_WINDS"},"data":[0,0,0,0,0,0,0,0,0,0,0,0,0,0,0,0,0,0,0,0,0,0,0,0,0,0,0,0,0,0,0,0,0,0,0,0,0,0,0,0,0,0,0,0,0,0,0,0,0,0,0,0,0,0,0,0,0,0,-1.1131,-1.1131,0,-1.1159,-1.1159,-1.116,-1.1158,-1.1158,-1.1157,-1.1157,-1.1185,-1.1186,-1.1187,0,0,0,0,0,0,0,0,0,0,0,0,0,-1.1074,-1.1075,-1.1131,-1.1131,-1.1131,-1.1159,-1.1159,-1.116,-1.1158,-1.1158,-1.1157,-1.1157,-1.1184,-1.1185,-1.1187,0,0,0,0,0,0,0,0,0,0,0,0,0,-1.11,-1.1075,-1.1131,-1.1134,-1.1135,-1.1159,-1.1159,-1.116,-1.1158,-1.1158,-1.1157,-1.1156,-1.1184,-1.1185,-1.1187,-1.121,0,0,-1.1192,-1.1193,0,0,0,0,0,0,0,0,-1.1098,-1.1102,-1.1133,-1.1134,-1.1134,-1.1154,-1.1149,-1.1177,-1.1158,-1.1149,-1.1157,-1.1156,-1.1175,-1.1177,-1.1184,-1.1211,-1.1212,-1.1192,-1.1193,-1.1194,-1.1194,0,0,0,0,0,0,0,-1.1097,-1.1101,-1.1142,-1.1134,-1.1134,-1.1134,-1.1137,-1.1155,-1.1165,-1.115,-1.115,-1.1153,-1.1175,-1.1182,-1.1185,-1.1212,-1.1192,-1.1194,-1.1195,-1.1195,-1.1259,-1.1259,0,0,0,0,0,0,-1.1094,-1.1099,-1.1141,-1.1143,-1.1115,-1.1135,-1.1139,-1.1149,-1.1165,-1.1167,-1.1154,-1.1153,-1.118,-1.1183,-1.1186,-1.1212,-1.1194,-1.1196,-1.1197,-1.1258,-1.1259,-1.126,0,0,0,0,0,0,-1.1093,-1.1098,-1.114,-1.1121,-1.1126,-1.1137,-1.1148,-1.115,-1.1157,-1.1168,-1.117,-1.1159,-1.1179,-1.1183,-1.1204,-1.1213,-1.1196,-1.1198,-1.1257,-1.1258,-1.1259,-1.1267,0,0,0,0,0,0,-1.1091,-1.1098,-1.1106,-1.1121,-1.1127,-1.1158,-1.1149,-1.1151,-1.116,-1.1159,-1.1173,-1.1175,-1.1179,-1.1201,-1.1205,-1.1215,-1.1199,-1.1256,-1.1258,-1.1259,-1.1266,-1.1268,-1.127,0,0,0,0,0,-1.1089,-1.1107,-1.1107,-1.1112,-1.1139,-1.1158,-1.1162,-1.1166,-1.1161,-1.1169,-1.1177,-1.1175,-1.1212,-1.1203,-1.1208,-1.1219,-1.1256,-1.1257,-1.1259,-1.1265,-1.1267,-1.127,0,0,0,0,0,0,-1.1093,-1.1109,-1.1109,-1.1132,-1.1144,-1.1158,-1.1169,-1.1169,-1.1182,-1.1181,-1.1186,-1.1189,-1.121,-1.1216,-1.1206,-1.1241,-1.1233,-1.1236,-1.1236,-1.1239,-1.1241,-1.1238,-1.1201,0,0,0,0,0,-1.1096,-1.1111,-1.1125,-1.1144,-1.115,-1.1159,-1.1167,-1.117,-1.1182,-1.1187,-1.1196,-1.1207,-1.1221,-1.123,-1.1244,-1.1267,-1.127,-1.1277,-1.1279,-1.128,-1.1282,-1.1294,-1.1297,-1.1265,-1.1265,-1.1265,0,0,-1.1104,-1.1114,-1.1123,-1.1145,-1.1154,-1.1169,-1.1163,-1.1179,-1.119,-1.1189,-1.1209,-1.1216,-1.1229,-1.125,-1.126,-1.1257,-1.1292,-1.1282,-1.1284,-1.1284,-1.1296,-1.1299,-1.1302,-1.1266,-1.1266,-1.1265,0,0,-1.1124,-1.1134,-1.1151,-1.1161,-1.1175,-1.1181,-1.1185,-1.12,-1.1204,-1.1224,-1.1224,-1.1237,-1.1262,-1.1271,-1.1278,-1.1303,-1.1302,-1.1307,-1.1318,-1.1329,-1.1332,-1.1334,-1.1342,-1.1345,-1.1309,-1.1309,-1.1309,0,-1.1131,-1.1154,-1.116,-1.1176,-1.1185,-1.1186,-1.1203,-1.1212,-1.123,-1.1236,-1.1232,-1.1262,-1.1271,-1.1295,-1.1301,-1.1307,-1.1312,-1.1305,-1.1331,-1.1334,-1.1336,-1.1343,-1.1346,-1.131,-1.131,-1.131,-1.131,0,-1.1161,-1.1177,-1.1189,-1.1207,-1.1218,-1.1234,-1.1242,-1.1252,-1.1254,-1.126,-1.128,-1.1291,-1.1307,-1.1313,-1.1315,-1.1336,-1.1333,-1.133,-1.1322,-1.1339,-1.1346,-1.1349,-1.1311,-1.1311,-1.131,-1.131,0,0,-1.1184,-1.1205,-1.1209,-1.1217,-1.1234,-1.1246,-1.1262,-1.1278,-1.1286,-1.1299,-1.1312,-1.1333,-1.133,-1.1339,-1.1342,-1.1353,-1.137,-1.1348,-1.1348,-1.1351,-1.1394,-1.1396,-1.1399,-1.137,-1.1371,-1.1371,-1.1393,0,-1.1206,-1.1235,-1.1241,-1.1266,-1.128,-1.1282,-1.1296,-1.1307,-1.1314,-1.1326,-1.1333,-1.1348,-1.1343,-1.1349,-1.1359,-1.1366,-1.1379,-1.1365,-1.1382,-1.1382,-1.1377,-1.1403,-1.1405,-1.1424,-1.1396,-1.1396,-1.1396,0,-1.1235,-1.1248,-1.1275,-1.1289,-1.1296,-1.1308,-1.1323,-1.1336,-1.1348,-1.1352,-1.1362,-1.1364,-1.1381,-1.1373,-1.1395,-1.1385,-1.1393,-1.1397,-1.1398,-1.1399,-1.1389,-1.1403,-1.1431,-1.1433,-1.1401,-1.1401,-1.14,0,-1.1247,-1.1272,-1.1292,-1.1299,-1.1316,-1.1325,-1.1332,-1.1344,-1.1354,-1.1367,-1.1372,-1.1387,-1.1395,-1.1406,-1.1411,-1.1405,-1.1433,-1.1426,-1.1436,-1.1436,-1.1441,-1.144,-1.1469,-1.1447,-1.1447,-1.1447,-1.1447,0,-1.127,-1.1286,-1.1298,-1.1309,-1.1327,-1.1334,-1.1351,-1.1359,-1.1369,-1.1382,-1.1384,-1.1396,-1.1403,-1.1416,-1.1421,-1.1438,-1.1442,-1.1445,-1.1445,-1.1444,-1.1443,-1.1448,-1.1446,-1.1448,-1.1448,-1.1448,-1.1448,0,-1.1287,-1.1295,-1.1316,-1.1331,-1.1335,-1.1348,-1.136,-1.1371,-1.1378,-1.1394,-1.1398,-1.1408,-1.1423,-1.143,-1.1449,-1.1452,-1.1471,-1.1472,-1.1467,-1.1467,-1.1476,-1.1475,-1.1508,-1.1512,-1.1489,-1.1489,-1.149,0,-1.13,-1.1313,-1.1329,-1.1338,-1.1346,-1.136,-1.137,-1.1377,-1.1386,-1.1402,-1.1411,-1.1426,-1.1439,-1.1463,-1.1471,-1.1485,-1.1486,-1.1496,-1.1488,-1.1485,-1.1485,-1.1483,-1.1484,-1.1497,-1.1498,-1.1498,-1.1498,0,-1.1323,-1.1327,-1.1341,-1.1356,-1.1367,-1.1379,-1.1391,-1.1398,-1.1407,-1.1418,-1.1434,-1.1443,-1.1463,-1.1477,-1.1492,-1.1499,-1.15,-1.1501,-1.1504,-1.1502,-1.1498,-1.1499,-1.147,-1.15,-1.1499,-1.1499,-1.1499,-1.1499,-1.1338,-1.1349,-1.1362,-1.1377,-1.1387,-1.1399,-1.141,-1.1418,-1.1431,-1.1448,-1.1451,-1.1467,-1.148,-1.1499,-1.1507,-1.152,-1.1517,-1.1522,-1.1523,-1.1523,-1.1523,-1.1497,-1.1523,-1.1523,-1.1523,-1.1523,-1.1523,0,-1.136,-1.1369,-1.1383,-1.14,-1.1412,-1.1412,-1.1425,-1.1435,-1.145,-1.1461,-1.1474,-1.1491,-1.1506,-1.1516,-1.1531,-1.1539,-1.1539,-1.1542,-1.1541,-1.1542,-1.1525,-1.1521,-1.1541,-1.1541,-1.1541,-1.1541,-1.1541,-1.1541,-1.1373,-1.1391,-1.1397,-1.142,-1.1428,-1.1445,-1.1452,-1.1462,-1.1472,-1.1492,-1.1504,-1.1511,-1.1521,-1.1537,-1.155,-1.1552,-1.1557,-1.156,-1.1562,-1.1546,-1.1544,-1.1542,-1.1538,-1.1561,-1.1561,-1.1578,-1.1578,-1.1578]},{"header":{"parameterUnit":"m.s-1","parameterCategory":1,"la1":30.2991,"la2":30.254,"lo1":-89.0895,"lo2":-89.0444,"dy":0.0017,"dx":0.0017,"nx":28,"ny":28,"refTime":"2025-12-28T09:00:00:Z","depth":0,"parameterNumber":3,"parameterNumberName":"V-component_of_WINDS"},"data":[0,0,0,0,0,0,0,0,0,0,0,0,0,0,0,0,0,0,0,0,0,0,0,0,0,0,0,0,0,0,0,0,0,0,0,0,0,0,0,0,0,0,0,0,0,0,0,0,0,0,0,0,0,0,0,0,0,0,1.7307,1.7309,0,1.7429,1.743,1.7431,1.7488,1.7488,1.7488,1.7488,1.7615,1.7618,1.7622,0,0,0,0,0,0,0,0,0,0,0,0,0,1.7128,1.7131,1.7307,1.7309,1.731,1.7428,1.743,1.7432,1.7488,1.7488,1.7488,1.7488,1.7614,1.7618,1.7622,0,0,0,0,0,0,0,0,0,0,0,0,0,1.7223,1.7132,1.7307,1.7353,1.7358,1.7428,1.743,1.7432,1.7488,1.7488,1.7488,1.7488,1.7612,1.7617,1.7622,1.7657,0,0,1.7638,1.764,0,0,0,0,0,0,0,0,1.7218,1.723,1.7344,1.735,1.7356,1.7443,1.7413,1.7508,1.7488,1.7439,1.7488,1.7488,1.7558,1.7568,1.7591,1.7663,1.7668,1.7639,1.7642,1.7644,1.7646,0,0,0,0,0,0,0,1.7211,1.7225,1.7355,1.7346,1.7353,1.7368,1.7382,1.7432,1.7498,1.7443,1.7448,1.7461,1.7561,1.7586,1.7594,1.767,1.7639,1.7643,1.7646,1.7648,1.778,1.778,0,0,0,0,0,0,1.7196,1.7219,1.7352,1.7359,1.7285,1.7372,1.7387,1.7415,1.7497,1.751,1.7461,1.7463,1.7577,1.7588,1.7599,1.7646,1.7644,1.7649,1.7652,1.778,1.778,1.7781,0,0,0,0,0,0,1.7192,1.7208,1.7347,1.729,1.7309,1.7375,1.7407,1.7418,1.7442,1.7511,1.7523,1.7474,1.7577,1.7591,1.7643,1.7652,1.7651,1.7656,1.7779,1.778,1.778,1.7741,0,0,0,0,0,0,1.7187,1.7206,1.7219,1.729,1.7312,1.7387,1.7407,1.742,1.7451,1.7455,1.7526,1.7538,1.7578,1.7635,1.7648,1.7659,1.766,1.7779,1.7779,1.778,1.7741,1.774,1.7738,0,0,0,0,0,1.718,1.7203,1.7219,1.7235,1.7329,1.7387,1.74,1.7445,1.7451,1.7466,1.751,1.7535,1.7648,1.7639,1.7655,1.7667,1.7778,1.7779,1.778,1.7742,1.774,1.7738,0,0,0,0,0,0,1.7131,1.7213,1.7232,1.7278,1.7325,1.7397,1.7416,1.7441,1.7489,1.749,1.7546,1.7561,1.7608,1.7643,1.7631,1.7707,1.7716,1.772,1.7682,1.768,1.7679,1.767,1.7664,0,0,0,0,0,1.7126,1.7165,1.7235,1.7269,1.7292,1.7349,1.7377,1.7408,1.7459,1.748,1.7528,1.7578,1.7625,1.7655,1.7701,1.7747,1.7764,1.7763,1.7762,1.776,1.7763,1.7792,1.7793,1.7783,1.7783,1.7783,0,0,1.7115,1.7164,1.7186,1.726,1.73,1.7342,1.7366,1.7408,1.7439,1.7486,1.7538,1.7575,1.7635,1.7683,1.7707,1.7714,1.777,1.7761,1.7759,1.7764,1.7793,1.7794,1.7795,1.7784,1.7784,1.7784,0,0,1.7116,1.7156,1.719,1.723,1.7291,1.733,1.7338,1.7406,1.7432,1.7485,1.7521,1.756,1.7639,1.7681,1.7713,1.7731,1.7757,1.7745,1.7737,1.7765,1.7766,1.7767,1.7775,1.7777,1.7748,1.7748,1.7748,0,1.7094,1.7157,1.7204,1.7245,1.7277,1.7321,1.7357,1.7394,1.7467,1.7489,1.7495,1.7597,1.764,1.77,1.7705,1.7728,1.7741,1.7737,1.7761,1.7763,1.7765,1.7773,1.7776,1.7746,1.7746,1.7746,1.7747,0,1.7129,1.7171,1.7191,1.7261,1.7296,1.7333,1.7388,1.7417,1.7446,1.7484,1.7538,1.7592,1.7651,1.7668,1.7696,1.7733,1.7735,1.775,1.7761,1.7763,1.7772,1.7775,1.7743,1.7744,1.7745,1.7745,0,0,1.7101,1.7197,1.7204,1.7237,1.7308,1.7343,1.7383,1.7441,1.7466,1.7515,1.7552,1.7619,1.7634,1.767,1.7704,1.7727,1.7741,1.7741,1.7743,1.774,1.7787,1.7776,1.7779,1.7759,1.776,1.776,1.7783,0,1.7113,1.7186,1.7231,1.7287,1.7328,1.7372,1.7408,1.7456,1.7493,1.7535,1.7577,1.7624,1.764,1.7662,1.7688,1.7734,1.7752,1.7733,1.7795,1.7797,1.7779,1.7783,1.7771,1.7789,1.7787,1.7787,1.7788,0,1.7136,1.7184,1.7244,1.7313,1.7332,1.7363,1.742,1.7459,1.7515,1.7541,1.7582,1.7616,1.7662,1.7669,1.7735,1.7721,1.775,1.7776,1.7778,1.7786,1.7792,1.7792,1.7796,1.7799,1.7793,1.7793,1.7792,0,1.7111,1.7192,1.7239,1.7265,1.7345,1.7367,1.7401,1.7458,1.749,1.7541,1.7563,1.7618,1.7649,1.7692,1.7741,1.7741,1.7803,1.7813,1.7827,1.7826,1.7839,1.7837,1.7848,1.7855,1.7855,1.7855,1.7855,0,1.712,1.7155,1.7229,1.7257,1.7299,1.7351,1.7391,1.743,1.748,1.7518,1.7559,1.7595,1.7657,1.77,1.7739,1.7789,1.7802,1.7826,1.7836,1.7823,1.782,1.7842,1.7843,1.7856,1.7856,1.7856,1.7855,0,1.71,1.715,1.7204,1.7276,1.7295,1.7323,1.7385,1.7416,1.7456,1.7504,1.7519,1.7582,1.7636,1.7689,1.7761,1.7787,1.7837,1.785,1.7818,1.7823,1.7835,1.7833,1.7861,1.7868,1.7869,1.7869,1.7869,0,1.7102,1.713,1.7206,1.7234,1.7268,1.7313,1.7346,1.7399,1.7432,1.75,1.7523,1.758,1.7628,1.7712,1.7766,1.7822,1.7837,1.7843,1.7846,1.7832,1.7839,1.7837,1.7841,1.7841,1.7841,1.7841,1.7841,0,1.7102,1.7126,1.7172,1.7227,1.7266,1.7312,1.736,1.7381,1.7444,1.748,1.7535,1.7572,1.7646,1.7703,1.7765,1.7803,1.7833,1.7839,1.7846,1.7833,1.7813,1.7826,1.7814,1.7839,1.7839,1.7839,1.7839,1.7839,1.7094,1.7122,1.7179,1.723,1.7272,1.7316,1.7348,1.7393,1.744,1.7503,1.7532,1.7588,1.7647,1.7734,1.7771,1.7817,1.7825,1.7834,1.7836,1.7838,1.7836,1.7805,1.7829,1.7829,1.7829,1.7829,1.7829,0,1.7097,1.7136,1.7182,1.7248,1.7288,1.7312,1.7367,1.7399,1.7448,1.7499,1.7546,1.7611,1.7666,1.7724,1.7784,1.781,1.7825,1.7823,1.7823,1.7831,1.7825,1.7814,1.781,1.781,1.781,1.781,1.781,1.781,1.7103,1.7151,1.7182,1.7253,1.7293,1.7347,1.7377,1.7419,1.746,1.753,1.7576,1.7614,1.7669,1.7733,1.7786,1.7802,1.7822,1.7817,1.7837,1.783,1.7831,1.7833,1.7823,1.7821,1.7821,1.784,1.784,1.784]}]]